Regional Weather Roundup
Issued by NWS

Home | Current Version | Previous Version | Graphics & Text | Print | Product List | Glossary On
Versions: 1 2 3 4 5 6 7 8 9 10 11 12 13 14 15 16 17 18 19 20 21 22 23 24 25 26 27 28 29 30 31 32 33 34 35 36 37 38 39 40 41 42 43 44 45 46 47 48 49 50
000
ASUS43 KFSD 210410
RWRSD

WEATHER ROUNDUP FOR SOUTH DAKOTA
NATIONAL WEATHER SERVICE SIOUX FALLS SD
1000 PM CST TUE FEB 20 2018

NOTE: "FAIR" INDICATES FEW OR NO CLOUDS BELOW 12,000 FEET WITH NO
SIGNIFICANT WEATHER AND/OR OBSTRUCTIONS TO VISIBILITY.


SDZ001>005-009-010-012>017-210500-
NORTHWEST AND NORTH CENTRAL SOUTH DAKOTA

CITY           SKY/WX    TMP DP  RH WIND       PRES   REMARKS
BUFFALO          N/A     -4 -13  65 NW21      30.09S WCI -28
FAITH            N/A     -7 -12  79 SW12      30.24R WCI -26
MOBRIDGE       CLEAR     -4 -10  75 NW3       30.28R
$$

SDZ012>016-024>037-041>051-057-063-072>074-210500-
SOUTHWEST AND SOUTH CENTRAL SOUTH DAKOTA

CITY           SKY/WX    TMP DP  RH WIND       PRES   REMARKS
RAPID CTY ARPT CLEAR    -13 -16  86 CALM      30.21R
PIERRE         PTCLDY    -1  -8  72 W9        30.36R WCI -16
CUSTER         CLEAR     -1 -12  59 CALM      30.01R
ELLSWORTH AFB  PTCLDY    -5 -10  79 W7        30.19R WCI -19
PHILIP         CLEAR    -11 -14  86 W6        30.33R WCI -25
PINE RIDGE     CLEAR    -18 -21  87 CALM      30.25R
SPEARFISH        N/A      3 -11  51 CALM      30.15R
WINNER         FAIR      -2  -9  72 SW7       30.36R WCI -15
$$

SDZ004>011-016>023-039-040-210500-
NORTHEAST SOUTH DAKOTA

CITY           SKY/WX    TMP DP  RH WIND       PRES   REMARKS
ABERDEEN       CLEAR     -8 -12  83 SW9       30.34R WCI -25
WATERTOWN      CLOUDY     0  -4  83 W12       30.28S WCI -17
BROOKINGS      CLOUDY     3  -2  79 NW12      30.33R WCI -13
SISSETON         N/A      5  -3  69 W9        30.31R WCI  -9
$$

SDZ017-020-022-023-036>040-048>070-210500-
SOUTHEAST SOUTH DAKOTA

CITY           SKY/WX    TMP DP  RH WIND       PRES   REMARKS
SIOUX FALLS    CLOUDY     4  -2  76 W8        30.36R WCI  -9
HURON          CLEAR      0  -5  79 W10       30.38R WCI -16
CHAMBERLAIN    CLEAR     -1  -6  80 SW6       30.38R WCI -13
MITCHELL       CLEAR      1  -4  79 W12       30.41R WCI -16
YANKTON        CLOUDY     4  -2  76 W8        30.41R WCI  -9
$$

ABBREVIATIONS USED IN REMARKS
   TC - TEMPERATURE IN CELSIUS
  WCI - WIND CHILL INDEX
   HX - HEAT INDEX
  VSB - VISIBILITY





USA.gov is the U.S. government's official web portal to all federal, state and local government web resources and services.